Weather History for Guatemala Aeropuertola Aurora, Guatemala

Change the Weather History Date:

Sunday, January 5, 2014

  Actual Average Record
Temperature  
Mean Temperature 68 °F -  
Max Temperature 79 °F 72 °F - ()
Min Temperature 57 °F 54 °F - ()
Cooling Degree Days 3    
Growing Degree Days 18 (Base 50)    
Moisture  
Dew Point 56 °F    
Average Humidity 72    
Maximum Humidity 94    
Minimum Humidity 39    
Precipitation  
Precipitation 0.00 in - - ()
Sea Level Pressure  
Sea Level Pressure 30.23 in    
Wind  
Wind Speed 7 mph ()    
Max Wind Speed 14 mph    
Max Gust Speed -    
Visibility 6.2 miles    
Events      
T = Trace of Precipitation, MM = Missing Value Source: Averaged Metar Reports

Daily Weather History Graph

Daily Weather History Graph

Search for Another Location

Airport:

Trip Planner

Search our weather history database for the weather conditions in past years. The results will help you decide how hot, cold, wet, or windy it might be!

Date:

Astronomy

Jan. 05, 2014 Rise Set
Actual Time 6:28 AM CST 5:46 PM CST
Civil Twilight 6:05 AM CST 6:09 PM CST
Nautical Twilight 5:38 AM CST 6:36 PM CST
Astronomical Twilight 5:12 AM CST 7:02 PM CST
Moon 9:59 AM CST (1/5) 10:20 PM CST (1/5)
Length of Visible Light 12h 04m
Length of Day
11h 18m
Waxing Crescent, 25% of the Moon is Illuminated
Jan 5
Waxing Crescent
Jan 7
First Quarter
Jan 15
Full
Jan 23
Last Quarter
Jan 30
New

Hourly Weather History & Observations

Time (CST) Temp. Dew Point Humidity Pressure Visibility Wind Dir Wind Speed Gust Speed Precip Events Conditions
12:00 AM 59.0 °F 55.4 °F 88% 30.27 in 6.2 mi North 11.5 mph - N/A   Scattered Clouds
1:00 AM 59.0 °F 55.4 °F 88% 30.27 in 6.2 mi North 9.2 mph - N/A   Scattered Clouds
2:00 AM 59.0 °F 55.4 °F 88% 30.24 in 6.2 mi North 11.5 mph - N/A   Scattered Clouds
3:00 AM 59.0 °F 55.4 °F 88% 30.24 in 6.2 mi NNE 11.5 mph - N/A   Scattered Clouds
4:00 AM 57.2 °F 55.4 °F 94% 30.24 in 6.2 mi NNE 9.2 mph - N/A   Mostly Cloudy
5:00 AM 59.0 °F 55.4 °F 88% 30.24 in 6.2 mi NNE 9.2 mph - N/A   Mostly Cloudy
6:00 AM 59 °F 54 °F 78% 29.97 in 25 mi NNE 6.9 mph - -   Mostly Cloudy
6:00 AM 59.0 °F 53.6 °F 82% 30.24 in 6.2 mi NNE 6.9 mph - N/A   Mostly Cloudy
7:00 AM 57.2 °F 53.6 °F 88% 30.27 in 6.2 mi NNE 6.9 mph - N/A   Partly Cloudy
8:00 AM 60.8 °F 55.4 °F 82% 30.30 in 6.2 mi NNE 9.2 mph - N/A   Partly Cloudy
9:00 AM 64.4 °F 55.4 °F 73% 30.33 in 6.2 mi North 4.6 mph - N/A   Partly Cloudy
10:00 AM 69.8 °F 53.6 °F 56% 30.33 in 6.2 mi NNE 4.6 mph - N/A   Partly Cloudy
11:00 AM 73.4 °F 55.4 °F 53% 30.30 in 6.2 mi Variable 3.5 mph - N/A   Partly Cloudy
12:00 PM 75.2 °F 55.4 °F 50% 30.27 in 6.2 mi South 6.9 mph - N/A   Partly Cloudy
1:00 PM 77.0 °F 53.6 °F 44% 30.24 in 6.2 mi South 4.6 mph - N/A   Scattered Clouds
2:00 PM 78.8 °F 51.8 °F 39% 30.21 in 6.2 mi South 11.5 mph - N/A   Scattered Clouds
3:00 PM 77.0 °F 53.6 °F 44% 30.18 in 6.2 mi South 13.8 mph - N/A   Scattered Clouds
4:00 PM 75.2 °F 55.4 °F 50% 30.21 in 6.2 mi South 9.2 mph - N/A   Scattered Clouds
5:00 PM 73.4 °F 57.2 °F 57% 30.21 in 6.2 mi South 11.5 mph - N/A   Partly Cloudy
6:00 PM 70 °F 61 °F 65% 29.93 in 25 mi South 6.9 mph - -  
6:00 PM 69.8 °F 60.8 °F 73% 30.24 in - South 6.9 mph - N/A   Clear
7:00 PM 68.0 °F 60.8 °F 78% 30.24 in - South 4.6 mph - N/A   Clear
8:00 PM 66.2 °F 60.8 °F 83% 30.24 in - Calm Calm - N/A   Clear
9:00 PM 64.4 °F 57.2 °F 77% - - Calm Calm - N/A   Clear
10:00 PM 62.6 °F 57.2 °F 82% 30.27 in - Calm Calm - N/A   Clear
11:00 PM 62.6 °F 57.2 °F 82% 30.27 in - North 4.6 mph - N/A   Clear